CZ-6A DEB, 56246

Orbit data source: Space-Track

CZ-6A DEB, 56246 is space debris in SSO originally from a launch on Fri, 11 Nov 2022 UTC launched from the Taiyaun Space Center, China (TSC). Debris objects in space refer to the collection of defunct objects orbiting the Earth. Examples of debris include non-operational satellites, rocket bodies, and fragments generated from explosions, collisions, or faulty payload assembly.

Loading next visibility...
Identifier
56246, 2022-151ABN
Orbit
SSO
Country
Flag of CNCN / PRC
Related business
Manufacturer
SAST
Mission
Spacecraft
Bus & Motor
Unknown
Mass
Unknown
Launch date (UTC)
2022-11-11 (4 years ago)
Launch vehicle
Unknown
Launch site
Taiyaun Space Center, China (TSC)
Object type
Payload
Rocket body
Debris
Shape & HBR
Unknown shape, 0.2 m
Radar Cross Section
Medium (>0.1 m² and <1 m²)

Expand to show TLE details & history
Last TLE update: 2 days ago

TLE from 2 days ago
0 CZ-6A DEB
1 56246U 22151ABN 26171.33561069  .00014427  00000-0  11838-2 0  9995
2 56246  98.7114 297.8101 0108286 108.2079 253.0962 14.94809612175098
Epoch: 2026-06-20T08:03Z
TLE epoch observation values (Epoch: 2026-06-20T08:03:16.763Z)
Latitude
0.00002°
Longitude
-91.56145°
Altitude
608.647 km
Speed
7.543 km/s
True Right ascension
19h 51m 14s
True Declination
0° 00' 00"
Sunlit
Object was in full shadow at epoch
Visualization orbit readout
Latitude
Unknown
Longitude
Unknown
Altitude
Unknown
Speed
Unknown
Apparent Right ascension
Unknown
Apparent Declination
Unknown
Sunlit
N/A
Visualization observer readout
Local Sidereal Time
21:40:36
Azimuth
Unknown
Elevation
Unknown
Doppler factor
Unknown
Orbital elements
Apogee altitude
655.37 km
Perigee altitude
504.676 km
Semi-major axis
6,958.16 km
Eccentricity
0.01083
Inclination
98.7114°
RAAN
297.8101°
Arg. of periapsis
108.2079°
True anomaly
251.91369°
Mean anomaly
253.0962°
Eccentric anomaly
252.50447°
Mean motion
3.7394 °/min
Orbital period
96.27 mins
BSTAR
0.0011838
Loading maneuver chart data...
Computing Atmospheric mass density...
Loading historical data...
Loading historical data...
Loading historical data...
Loading historical data...
Loading historical data...
Loading historical data...
Loading historical data...

Documentation

Showing up to 5 results
|